Regional Weather Roundup
Issued by NWS

Home | Current Version | Previous Version | Text Only | Print | Product List | Glossary On
Versions: 1 2 3 4 5 6 7 8 9 10 11 12 13 14 15 16 17 18 19 20 21 22 23 24 25 26 27 28 29 30 31 32 33 34 35 36 37 38 39 40 41 42 43 44 45 46 47 48 49 50
000
ASUS43 KMKX 050311
RWRWI

WISCONSIN REGIONAL WEATHER ROUNDUP
NATIONAL WEATHER SERVICE MILWAUKEE/SULLIVAN WI
900 PM CST WED MAR 04 2015

NOTE: "FAIR" INDICATES FEW OR NO CLOUDS BELOW 12,000 FEET WITH NO
SIGNIFICANT WEATHER AND/OR OBSTRUCTIONS TO VISIBILITY.

WIZ001-002-006>008-014>016-023>028-050400-
NORTHWEST WISCONSIN

CITY           SKY/WX    TMP DP  RH WIND       PRES   REMARKS
SUPERIOR ARPT  FAIR      -1 -14  54 W5        30.34R WCI -11
ASHLAND        PTCLDY    -7 -17  62 W5        30.30R WCI -18
HAYWARD        CLEAR    -10 -19  64 CALM      30.27R
SIREN          CLEAR     -5 -16  60 W6        30.33R WCI -18
CUMBERLAND     CLEAR     -2 -15  55 NW5       30.28R WCI -12
RICE LAKE      CLEAR     -3 -14  59 W3        30.32R
CHETEK         CLEAR     -2 -13  59 CALM      30.31R
LADYSMITH      CLEAR     -1 -13  55 W5        30.29R WCI -11
EAU CLAIRE     MOCLDY     0 -13  54 W6        30.35R WCI -12
MENOMONIE      PTCLDY     3 -11  51 W7        30.36R WCI  -9
NEW RICHMOND   CLEAR     -1 -13  58 W8        30.34R WCI -16
OSCEOLA        CLEAR      0 -12  57 W8        30.37R WCI -15
$$

WIZ003>005-009-010-017-018-050400-
NORTH CENTRAL WISCONSIN

CITY           SKY/WX    TMP DP  RH WIND       PRES   REMARKS
MANITOWISH WTR CLEAR     -8 -16  66 W3        30.18R
ARBOR VITAE    CLEAR     -1 -12  60 CALM      30.18R
WOODRUFF       CLEAR     -1 -12  60 CALM      30.18R
RHINELANDER    CLEAR     -4 -13  65 NW5       30.20R WCI -15
EAGLE RIVER    CLEAR     -4 -13  65 W3        30.16R
LAND O LAKES   CLEAR     -4 -13  65 W3        30.16R
PHILLIPS       CLEAR     -7 -14  71 CALM      30.22R
TOMAHAWK       CLEAR     -5 -13  68 CALM      30.21R
MEDFORD        CLEAR     -1 -13  57 W5        30.23R WCI -11
MERRILL        CLEAR      0 -13  54 CALM      30.23R
$$

WIZ029-030-035-036-043>047-050400-
CENTRAL WISCONSIN

CITY           SKY/WX    TMP DP  RH WIND       PRES   REMARKS
WAUSAU         CLEAR      1 -13  51 NW5       30.25R WCI  -9
MOSINEE        NOT AVBL
MARSHFIELD     CLEAR     -1 -13  56 NW9       30.26R WCI -16
STEVENS POINT  CLEAR      3 -12  48 W5        30.28R WCI  -6
WAUPACA        PTCLDY     9 -11  39 NW9       30.26F WCI  -4
WAUTOMA        NOT AVBL
WISC RAPIDS    CLEAR      4 -12  48 NW8       30.29R WCI  -9
CAMP DOUGLAS   PTCLDY     5  -6  61 W6        30.31R WCI  -6
$$

WIZ011>013-019>022-031-037>040-048>050-050400-
NORTHEAST WISCONSIN

CITY           SKY/WX    TMP DP  RH WIND       PRES   REMARKS
ANTIGO         CLEAR     -2 -12  63 NW5       30.20R WCI -13
SHAWANO        FAIR       7 -12  42 NW3       30.30R
OCONTO         CLEAR      5 -11  48 NW5       30.27R WCI  -4
STURGEON BAY   CLEAR      5 -11  47 N10       30.26S WCI -10
GREEN BAY      CLEAR      6  -8  52 W8        30.30R WCI  -7
MANITOWOC      NOT AVBL
APPLETON       CLEAR      7 -11  43 W12       30.28R WCI  -9
CLINTONVILLE   PTCLDY     5  -9  51 NW6       30.30R WCI  -6
OSHKOSH        PTCLDY     8  -8  48 NW9       30.29R WCI  -5
$$

WIZ032>034-041-042-053>061-050400-
SOUTHWEST WISCONSIN

CITY           SKY/WX    TMP DP  RH WIND       PRES   REMARKS
LA CROSSE      PTCLDY     9  -4  55 W12       30.35R WCI  -6
SPARTA         PTCLDY     8  -4  59 W6        30.32R WCI  -2
VIROQUA        PTCLDY     6  -3  64 W10       30.28R WCI  -8
BOSCOBEL       PTCLDY    10  -2  58 W3        30.35R
PRAIRIE DU CHI PTCLDY     9  -3  60 W5        30.36R WCI   0
PLATTEVILLE    CLEAR      6  -3  67 W6        30.32R WCI  -5
$$

WIZ056-057-062-063-064-067-068-050400-
SOUTH CENTRAL WISCONSIN

CITY           SKY/WX    TMP DP  RH WIND       PRES   REMARKS
REEDSBURG      MOCLDY     9  -4  56 W6        30.30R WCI  -1
BARABOO/DELLS  MOCLDY     8  -6  51 CALM      30.29R
LONE ROCK      NOT AVBL
MINERAL POINT  PTCLDY    10  -4  52 W8        30.29R WCI  -1
MADISON        PTCLDY    11  -5  48 W7        30.31R WCI   0
MIDDLETON      PTCLDY    12  -6  44 W8        30.30R WCI   1
WATERTOWN      PTCLDY    11  -4  51 NW7       30.29R WCI   0
MONROE         CLEAR      9   0  66 W12       30.29R WCI  -6
JANESVILLE     CLEAR      9  -4  56 W9        30.32R WCI  -5
$$

WIZ051-052-058>065-066-070>072-050400-
SOUTHEAST WISCONSIN

CITY           SKY/WX    TMP DP  RH WIND       PRES   REMARKS
MILWAUKEE      MOCLDY    14  -6  40 NW6       30.31R WCI   5
WAUKESHA       CLEAR      9  -6  52 W6        30.29R WCI  -1
MILWAUKEE/TIMM CLEAR     10  -8  44 NW6       30.29R WCI   1
RACINE         PTCLDY    12  -6  44 W5        30.32R WCI   4
BURLINGTON     PTCLDY     7  -9  49 W7        30.31R WCI  -5
KENOSHA        PTCLDY     6  -7  54 W6        30.29R WCI  -4
FOND DU LAC    PTCLDY     9  -7  48 NW8       30.30R WCI  -3
SHEBOYGAN      PTCLDY     8  -9  45 NW10      30.28R WCI  -6
WEST BEND      PTCLDY     9  -8  47 NW3       30.27R
JUNEAU         PTCLDY     9  -6  52 NW6       30.29R WCI  -1
$$

LSZ147-162-050400-
LAKE SUPERIOR

STATION/POSITION TIME  TEMP    WIND        PRES    WAVE
                       AIR SEA DIR/SP/G            HT/PER
                 (UTC) (F)     (DEG/KT/KT) (MB)    (FT/S)
DEVILS ISLAND    0300    6     300/ 16/ 20 1027.6R
PORT WING        0100    6     310/ 14/ 19 1025.7R
SAXON HARBOR     0040    3     240/  3/  6 1025.1
$$

LMZ867-665-643>646-050400-
LAKE MICHIGAN

STATION/POSITION TIME  TEMP    WIND        PRES    WAVE
                       AIR SEA DIR/SP/G            HT/PER
                 (UTC) (F)     (DEG/KT/KT) (MB)    (FT/S)
NORTHPORT PIER   0210   10     320/ 17/ 25 1024.7R
KEWAUNEE LAKESHO 0200    8     300/  6/ 11 1023.5R
SHEBOYGAN LAKESH 0200   11     320/ 10/ 12 1026.1R
PORT WASHINGTON  0140   13     330/  4/  9 1024.7R
MILWAUKEE LAKESH 0200   15     300/  8/ 10   N/A
KENOSHA   LAKESH 0300   13     290/  6/  8 1026.4R
$$

TC  - TEMPERATURE IN CELSIUS
VSB - VISIBILITY IN STATUTE MILES
WCI - WIND CHILL INDEX
HX  - HEAT INDEX




USA.gov is the U.S. government's official web portal to all federal, state and local government web resources and services.